Find UniSat-3

NORAD ID: 28373 Int'l Des: 2004-025 Owner: ROGAU Country: I operational
LEOCIRCULARRETROGRADESSO

Live Position

Loading 3D Globe...

About UniSat-3

Description loading...

Upcoming Passes

Passes for default location (London). Set your location on the main map for personalized predictions.

Altitude History

Loading altitude history...

Two-Line Element Set

1 28373U 04025H 26105.59497041 .00000207 00000-0 66037-4 0 9992
2 28373 98.6962 113.5533 0065236 180.3918 179.7234 14.49016093149989
Epoch: Apr 15, 2026 • Age: 8 hours

Current Status

Altitude 779.2 km
Velocity 7.44 km/s
Sub-Earth Point -8.43°S, 66.79°W
Launch Date Jun 29, 2004
Age 21.7 years
Type other

Technical Details

Classification Payload
Mass 12.00 kg
Dry Mass 12.00 kg
Total Mass 12.00 kg
Length 0.30 m
Diameter 0.20 m
Span 0.30 m
Shape Oct Cyl
Manufacturer ROGAU/ROSAP
Bus Type Unisat
Phase Status In Orbit
Owner/State ROGAU/I

Most Searched